Location: Liscomb Game Sanctuary
(45.1633°N, 62.5575°W)
Time: 08:09:24
(UTC-03:00)

Daily predictions for brighter satellites

Satellite Brightness Start Highest point End
(mag) Time Altitude Azimuth Time Altitude Azimuth Time Altitude Azimuth
Cosmos 1809 Rocket 4.5 18:35:24 10° S 18:41:28 80° E 18:47:34 10° N
Cosmos 1315 Rocket 4.1 18:41:06 10° NNE 18:44:19 22° ENE 18:47:33 10° ESE
Cosmos 2151 3.6 18:40:49 10° N 18:44:45 34° ENE 18:48:38 10° SE
Cosmos 1680 Rocket 4.4 18:40:36 10° SW 18:45:46 54° WNW 18:50:56 10° NNE
MTI 4.1 18:42:44 10° NNE 18:45:51 45° E 18:48:56 10° S
CZ-4C R/B 3.9 18:46:25 10° ESE 18:46:43 10° ESE 18:47:00 10° E
Meteor 1-11 4.3 18:45:50 10° N 18:51:39 71° ENE 18:57:21 10° SSE
SKYMED 2 4.0 18:49:07 10° NNE 18:53:13 39° E 18:57:17 10° SSE
Cosmos 2322 4.1 18:48:29 10° NNW 18:53:59 45° ENE 18:59:26 10° SE
CORIOLIS 4.4 18:49:16 10° S 18:54:38 78° WSW 19:00:06 10° NNW
EO 1 Del DPAF 3.4 18:52:10 10° NNE 18:55:57 50° E 18:59:41 10° S
FENGYUN 3A 4.2 18:51:44 10° SE 18:56:39 38° ENE 19:01:37 10° N
Cosmos 1743 Rocket 3.6 18:53:13 10° N 18:57:34 60° E 19:01:54 10° SSE
Meteor 1-16 Rocket 4.1 18:54:34 10° S 18:59:52 88° E 19:05:16 10° N
Cosmos 1766 Rocket 4.5 18:56:22 10° NNW 19:00:44 55° W 19:05:06 10° S
RESURS DK-1 2.5 18:59:57 10° NNW 19:04:02 52° ENE 19:08:04 10° SE
Aureole 1 Rocket 3.8 18:59:29 10° SSW 19:06:00 85° WNW 19:10:54 10° NNE
Cosmos 1842 Rocket 3.7 19:03:09 10° S 19:07:31 56° E 19:11:53 10° NNE
Lacrosse 5 rocket 3.2 19:03:58 10° W 19:07:49 27° NNW 19:11:30 10° NE
Cosmos 2058 2.9 19:04:39 10° N 19:08:49 59° E 19:12:55 10° SSE
ALOS 2.5 19:05:42 10° SE 19:10:09 46° ENE 19:14:38 10° N
Atlas Centaur 2 4.0 19:07:32 10° SSW 19:10:12 15° S 19:13:11 10° SE
CZ-2C R/B 4.1 19:05:45 10° N 19:10:17 68° WNW 19:14:42 10° SSW
Cosmos 2221 3.4 19:06:53 10° SSE 19:10:30 27° E 19:14:11 10° NNE
SJ-6B 4.2 19:09:47 12° E 19:11:41 17° ENE 19:14:10 10° NNE
BREEZE-M DEB (TANK) 3.6 19:08:13 10° WNW 19:12:01 83° NNE 19:26:32 10° ESE
Cosmos 2219 Rocket 3.3 19:08:20 10° N 19:12:56 25° NE 19:16:41 13° E
Cosmos 1461 4.0 19:09:58 10° WSW 19:13:51 43° NW 19:17:57 10° NNE
Gbstr 26 Del rocket 3.9 19:10:13 10° WNW 19:14:54 51° NNE 19:19:42 15° E
Cosmos 921 Rocket 3.2 19:12:47 10° N 19:17:12 52° ENE 19:21:28 10° SE
Cosmos 1500 Rocket 3.4 19:14:52 10° N 19:19:15 78° E 19:23:34 10° SSE
ERS-2 3.9 19:16:47 10° SSW 19:20:13 36° W 19:23:41 10° NNW
Cosmos 2366 rocket 4.1 19:14:47 10° S 19:21:01 86° W 19:27:14 10° N
Cosmos 1703 3.2 19:17:27 10° N 19:21:26 86° E 19:25:20 10° S
MONITOR-E 4.3 19:18:21 10° S 19:21:26 77° WSW 19:24:32 10° NNW
Resurs 01 Rocket 3.3 19:22:24 14° ENE 19:22:32 14° ENE 19:24:49 10° NNE
USA 267 4.3 19:21:47 15° E 19:25:29 23° SE 19:30:30 10° S
SPOT 3 Rocket 3.6 19:20:19 10° SSE 19:25:31 88° WSW 19:30:47 10° NNW
SL-16 R/B 3.9 19:21:02 10° NW 19:26:12 37° WSW 19:31:22 10° S
Meteor 1-28 Rocket 4.5 19:22:37 10° N 19:26:15 44° WNW 19:29:50 10° SW
Cosmos 2237 4.2 19:25:47 10° NNW 19:31:32 70° ENE 19:37:14 10° SSE
Abrixas rocket 2.7 19:29:36 10° W 19:32:50 53° N 19:34:33 24° ENE
Cosmos 1726 3.0 19:33:04 10° SSE 19:36:13 27° E 19:37:27 22° ENE
Cosmos 1400 Rocket 3.9 19:33:43 10° NNW 19:37:38 48° W 19:41:28 10° S
Cosmos 1908 3.1 19:35:37 10° S 19:39:30 66° E 19:43:23 10° NNE
Cosmos 2098 Rocket 3.7 19:36:12 10° SSE 19:40:21 42° E 19:45:36 10° NNE
COSMO-SKYMED 1 3.0 19:37:03 10° N 19:41:21 64° WNW 19:45:39 10° SSW
Cosmos 1452 Rocket 3.6 19:36:49 10° NNW 19:42:06 78° WSW 19:47:20 10° SSE
CZ-4 R/B 4.2 19:39:21 10° SSW 19:42:42 23° W 19:46:02 10° NW
Cosmos 2237 Rocket 3.3 19:39:20 10° N 19:43:59 25° NE 19:45:25 22° ENE
BREEZE-M DEB (TANK) 3.5 19:32:38 10° W 19:44:45 85° N 19:47:12 27° E
Cosmos 44 3.7 19:41:02 10° S 19:44:57 33° ESE 19:45:53 30° E
GENESIS II 4.1 19:41:50 10° SSW 19:45:48 78° SE 19:48:33 19° NE
H-2A R/B 2.8 19:44:09 11° SSE 19:47:50 54° ENE 19:51:41 10° N
Sich 1 3.5 19:46:45 10° N 19:50:49 37° ENE 19:51:49 32° ESE
SL-24 R/B - RUBIN 2 4.3 19:46:11 10° NW 19:51:00 56° WSW 19:55:20 10° SSE
NOAA 12 4.4 19:46:08 10° S 19:51:24 70° WSW 19:56:44 10° NNW
SL-16 R/B 3.9 19:49:56 10° N 19:53:08 15° NE 19:53:31 15° NE
BREEZE-M DEB (TANK) 4.2 19:54:41 10° SW 19:55:04 10° SW 19:55:28 10° SSW
Cosmos 1000 Rocket 4.4 19:50:09 10° N 19:56:26 78° E 20:02:36 10° SSE
Spot 2 Rocket 4.3 19:57:14 28° ENE 19:57:19 28° ENE 20:01:37 10° N
Cosmos 1805 Rocket 3.4 19:53:19 10° N 19:57:41 66° E 20:02:03 10° SSE
Cosmos 1821 Rocket 3.9 19:51:58 10° S 19:58:00 63° E 20:04:12 10° NNE
SAR-Lupe-3 4.5 19:57:17 10° NNE 20:00:53 86° WNW 20:04:28 10° SSW
USA 234 4.0 19:59:17 24° ENE 20:02:33 39° NNE 20:08:32 10° NW
Aureole 2 Rocket 2.9 19:58:59 10° N 20:02:43 47° ENE 20:02:43 47° ENE
Cosmos 1934 Rocket 4.1 19:57:39 10° SSE 20:03:48 54° E 20:10:00 10° NNE
Cosmos 44 Rocket 3.3 19:59:25 10° SSW 20:03:57 51° ESE 20:05:03 41° ENE
DELTA 2 R/B (1) 4.5 19:59:42 10° W 20:04:53 40° SSW 20:07:30 25° SE
Cosmos 2239 Rocket 4.3 19:59:46 10° S 20:05:51 73° E 20:12:00 10° NNE
CZ-2D R/B 4.1 20:07:00 34° NE 20:07:00 34° NE 20:09:42 10° N
FREGAT/IRIS 2.7 20:05:28 44° S 20:06:16 72° WSW 20:09:16 10° NNW
Cosmos 1666 Rocket 3.6 20:02:07 10° N 20:06:24 52° ENE 20:06:57 48° ESE
Cosmos 1980 4.2 20:02:20 10° NNW 20:07:33 37° NE 20:08:19 35° ENE
Cosmos 2360 Rocket 3.4 20:02:30 10° NW 20:07:47 42° WSW 20:13:04 10° S
COSMOS 2428 2.6 20:02:07 10° NNW 20:07:50 90° ENE 20:12:23 16° SSE
Cosmos 2333 Rocket 2.3 20:05:35 10° NNW 20:11:12 54° ENE 20:12:55 40° ESE
Cosmos 1633 Rocket 3.2 20:10:28 10° N 20:14:31 52° ENE 20:14:31 52° ENE
Iridium 4 Rocket 3.9 20:10:27 10° S 20:15:58 73° W 20:21:51 10° N
SL-8 R/B 3.6 20:12:08 10° WSW 20:16:58 89° NNW 20:18:06 54° ENE
Cosmos 2219 3.1 20:13:05 10° SSW 20:18:47 67° ESE 20:23:20 16° NNE
Cosmos 1048 Rocket 3.9 20:18:17 10° SSW 20:23:26 85° WNW 20:28:36 10° NNE
ATLAS 5 CENTAUR R/B 4.4 20:22:34 10° NNW 20:24:30 12° N 20:26:28 10° NNE
Cosmos 2123 Rocket 3.9 20:18:30 10° N 20:24:45 75° E 20:29:45 17° SSE
Thor Agena Rocket 3.8 20:22:14 10° N 20:27:19 67° WNW 20:32:20 10° SSW
MOS 1-B Rocket 3.7 20:28:39 37° SSE 20:30:59 75° ENE 20:37:05 10° NNW
Envisat 3.1 20:32:19 55° NE 20:32:19 55° NE 20:36:51 10° N
Cosmos 1605 Rocket 3.9 20:26:13 10° S 20:32:12 60° E 20:38:11 10° NNE
CZ-4C R/B 2.0 20:28:38 10° SSW 20:33:49 73° SE 20:34:52 58° ENE
SJ-6B 4.1 20:45:28 34° WSW 20:46:05 37° W 20:49:36 10° NNW
Lacrosse 5 rocket 3.7 20:45:28 10° NW 20:48:13 16° N 20:48:13 16° N
Cosmos 2219 Rocket 2.6 20:51:47 10° NNW 20:57:17 60° WSW 20:58:26 49° SSW
Atlas Centaur 2 4.4 20:55:51 10° SW 20:58:05 13° SSW 20:58:05 13° SSW
Resurs 01 Rocket 2.7 20:59:59 39° NNW 20:59:59 39° NNW 21:02:52 10° NNW
Cosmos 1331 Rocket 4.2 20:54:53 10° NNW 20:59:26 67° NW 20:59:26 67° NW
Gbstr 26 Del rocket 3.9 20:56:53 10° WNW 21:02:10 63° SW 21:02:17 63° SSW
Cosmos 1447 Rocket 4.4 20:58:02 10° N 21:04:03 78° NNE 21:04:03 78° NNE
USA 267 3.1 21:09:11 81° SSE 21:09:11 81° SSE 21:15:41 10° SW
NOSS 0 Rocket 4.4 21:15:01 10° NW 21:21:01 55° WSW 21:21:21 54° WSW
Cosmos 2237 Rocket 2.9 21:22:51 10° NNW 21:27:16 50° WNW 21:27:16 50° WNW
SL-16 R/B 3.7 21:32:39 10° NNW 21:35:24 29° NNW 21:35:24 29° NNW
USA 234 3.7 21:46:39 56° NW 21:46:39 56° NW 21:51:41 10° NW
Cosmos 2333 Rocket 4.0 21:50:30 10° NW 21:54:58 25° W 21:54:58 25° W
CZ-3A R/B 3.9 21:47:02 10° NW 22:01:29 76° WNW 22:01:29 76° WNW
CZ-4C R/B 4.5 22:18:15 10° W 22:20:07 19° WNW 22:20:07 19° WNW
